Home   Weather   Knittelfeld   Past weeks

Flag for Austria Past Weather in Knittelfeld, Styria, Austria — Yesterday and Last 2 Weeks

Now
55 °F

Passing clouds.


Feels Like: 55 °F
Forecast: 46 / 68 °F
Wind: 1 mph from North

Location: Zeltweg

Current Time: Sep 25, 2016 at 9:08:10 PM

Latest Report: Sep 25, 2016 at 7:50 PM


Visibility: 25 mi

Pressure: 30.12 "Hg (27.90 "Hg at 641m altitude)

Humidity: 77%

Dew Point: 48 °F

Location of KnittelfeldLocation

Past Weather in Knittelfeld — Graph

°F

Knittelfeld Temperature Yesterday

Maximum temperature yesterday: 68 °F (at 2:50 PM)
Minimum temperature yesterday: 41 °F (at 5:50 AM)
Average temperature yesterday: 55 °F

High & Low Weather Summary for the Past Weeks

 TemperatureHumidityPressure
High81 °F (Sep 12, 4:20 PM)100% (Sep 12, 4:50 AM)30.39 "Hg (Sep 12, 4:50 AM)
Low37 °F (Sep 22, 4:50 AM)33% (Sep 24, 3:50 PM)29.83 "Hg (Sep 17, 7:50 AM)
Average60 °F72%30.06 "Hg
* Reported Sep 10 7:50 PM — Sep 25 7:50 PM, Knittelfeld, Weather by CustomWeather, © 2016

Note: Actual official high and low records may vary slightly from our data, if they occured in-between our weather recording intervals... More about our weather records

Advertising

Knittelfeld Weather History for the Previous 24 Hours

Scroll right to see more
 ConditionsComfort  
Time TempWeatherWind HumidityBarometerVisibility
7:50 PM
Sun, Sep 25
55 °FPassing clouds.1 mph77%30.12 "Hg25 mi
6:50 PM63 °FScattered clouds.3 mph59%30.12 "Hg25 mi
5:50 PM66 °FScattered clouds.7 mph52%30.09 "Hg25 mi
4:50 PM70 °FPassing clouds.5 mph43%30.09 "Hg25 mi
3:50 PM68 °FPassing clouds.3 mph43%30.09 "Hg25 mi
2:50 PM68 °FScattered clouds.2 mph46%30.12 "Hg25 mi
1:50 PM64 °FScattered clouds.2 mph60%30.15 "Hg25 mi
12:50 PM61 °FScattered clouds.2 mph63%30.18 "Hg25 mi
11:50 AM54 °FPartly sunny.1 mph82%30.21 "Hg19 mi
10:50 AM46 °FFog.2 mph93%30.24 "Hg3 mi
9:50 AM45 °FFog.2 mph100%30.24 "Hg1 mi
8:50 AM45 °FSleet. Low clouds.1 mph93%30.27 "Hg1 mi
7:50 AM45 °FFog.1 mph93%30.27 "Hg1 mi
6:50 AM43 °FPartly cloudy.2 mph93%30.27 "Hg4 mi
5:50 AM41 °FPartly cloudy.1 mph93%30.27 "Hg6 mi
4:50 AM41 °FPartly cloudy.2 mph87%30.27 "Hg6 mi
10:50 PM
Sat, Sep 24
48 °FClear.1 mph82%30.30 "Hg12 mi
9:50 PM50 °FClear.2 mph82%30.30 "Hg16 mi
Weather by CustomWeather, © 2016

See weather overviewHow to use our weather pages